Simultaneous Nadir Overpasses (SNOs) Predictions

Prediction of SNOs between AQUA and METOP-B Satellite Orbit:

Table of predicted SNOs for the next 14.0 days since TLE Epoch: 12/5/2020
Index Date (AQUA) Time (AQUA) Lat,Lon (AQUA) SZA (AQUA ) Date (METOP-B) Time (METOP-B) Lat,Lon (METOP-B) SZA (METOP-B ) Distance(km) Time Diff (sec)
1 12/05/2020 07:03:57 -73.76,-111.65 83.88 12/05/2020 07:03:15 -73.77,-111.67 83.86 1.72 42
2 12/05/2020 07:53:27 73.86, 55.76 96.24 12/05/2020 07:53:54 73.84, 55.81 96.21 3.32 27
3 12/08/2020 02:38:12 -73.76, -45.21 83.56 12/08/2020 02:37:38 -73.77, -45.29 83.54 2.51 34
4 12/08/2020 03:27:41 73.81, 122.31 96.51 12/08/2020 03:28:17 73.83, 122.19 96.52 3.83 36
5 12/10/2020 22:12:26 -73.77, 21.21 83.28 12/10/2020 22:12:00 -73.75, 21.10 83.29 3.86 26
6 12/10/2020 23:01:56 73.88,-171.40 96.84 12/10/2020 23:02:38 73.86,-171.31 96.82 3.25 42
7 12/13/2020 17:46:41 -73.79, 87.60 83.05 12/13/2020 17:46:22 -73.79, 87.59 83.05 0.43 19
8 12/13/2020 18:36:10 73.85,-104.90 97.02 12/13/2020 18:37:01 73.85,-104.94 97.01 1.26 51
9 12/16/2020 12:31:22 73.37, -12.70 96.66 12/16/2020 12:30:13 73.30, -14.46 96.63 56.43 69
10 12/16/2020 13:20:56 -73.82, 153.97 82.88 12/16/2020 13:20:44 -73.82, 154.07 82.88 3.19 12
11 12/16/2020 14:10:25 73.89, -38.54 97.20 12/16/2020 14:11:23 73.88, -38.46 97.18 2.94 58



Historial Predications of SNOs between AQUA and METOP-B
